This is the latest recevied weather packets stored in our database for station/object W8LMG. If no packets are shown the sender has not sent any weather packets the latest 10 day(s).
| Time | Temp. | Humidity | Pressure | Rain* | Wind** | Luminosity | Snow |
|---|---|---|---|---|---|---|---|
| 1777659552 | 17.22° C | 35% | 1012 hPa | 0 mm | - | 714 W/m² | - |
| 1777659249 | 17.22° C | 34% | 1012.2 hPa | 0 mm | - | 725 W/m² | - |
| 1777658946 | 16.67° C | 30% | 1012.3 hPa | 0 mm | - | 723 W/m² | - |
| 1777658643 | 17.22° C | 30% | 1012.3 hPa | 0 mm | - | 718 W/m² | - |
| 1777658340 | 17.22° C | 30% | 1012.2 hPa | 0 mm | - | 724 W/m² | - |
| 1777658036 | 17.22° C | 33% | 1012.5 hPa | 0 mm | - | 700 W/m² | - |
| 1777657733 | 17.22° C | 36% | 1012.3 hPa | 0 mm | - | 618 W/m² | - |
| 1777657431 | 16.67° C | 34% | 1012.3 hPa | 0 mm | - | 697 W/m² | - |
| 1777657128 | 16.67° C | 33% | 1012.6 hPa | 0 mm | - | 639 W/m² | - |
| 1777656826 | 16.11° C | 32% | 1012.7 hPa | 0 mm | - | 522 W/m² | - |
| 1777656521 | 16.67° C | 33% | 1012.6 hPa | 0 mm | - | 420 W/m² | - |
| 1777656216 | 16.11° C | 40% | 1012.6 hPa | 0 mm | - | 357 W/m² | - |
| 1777655912 | 16.11° C | 41% | 1012.8 hPa | 0 mm | - | 424 W/m² | - |
| 1777655609 | 15.56° C | 44% | 1012.8 hPa | 0 mm | - | 301 W/m² | - |
| 1777655306 | 15.56° C | 38% | 1012.9 hPa | 0 mm | - | 298 W/m² | - |
| 1777655003 | 15.56° C | 37% | 1013.1 hPa | 0 mm | - | 374 W/m² | - |
| 1777654700 | 15.56° C | 43% | 1013.2 hPa | 0 mm | - | 410 W/m² | - |
| 1777654398 | 15.56° C | 44% | 1013.1 hPa | 0 mm | - | 411 W/m² | - |
| 1777654096 | 15° C | 39% | 1013.2 hPa | 0 mm | - | 472 W/m² | - |
| 1777653793 | 15.56° C | 38% | 1013 hPa | 0 mm | - | 203 W/m² | - |
| 1777653489 | 15° C | 40% | 1013.3 hPa | 0 mm | - | 126 W/m² | - |
| 1777653186 | 15° C | 40% | 1013.4 hPa | 0 mm | - | 382 W/m² | - |
| 1777652882 | 14.44° C | 39% | 1013.3 hPa | 0 mm | - | 643 W/m² | - |
| 1777652579 | 14.44° C | 34% | 1013.5 hPa | 0 mm | - | 180 W/m² | - |
| 1777652275 | 14.44° C | 38% | 1013.4 hPa | 0 mm | - | 136 W/m² | - |
* Rain latest hour (hover to see other rain measurements)
** Current wind speed in m/s (hover to see current wind gust speed)